Location: Artiguedieu
(43.5000°N, 0.5454°E)
Time: 09:53:45
(UTC+00:00)

Explorer 7 - Pass Details

Date: 02 August 2021
Orbit: 484 x 676 km, 50.3° (Epoch: 22 September)

Event Time Altitude Azimuth Distance (km) Brightness Sun altitude
Rises 08:38:45 0° 297° (WNW) 2,643 9.8 39.8°
Reaches altitude 10° 08:41:00 10° 305° (NW) 1,782 9.1 40.2°
Maximum altitude 08:44:51 41° 17° (NNE) 814 8.1 40.9°
Drops below altitude 10° 08:48:56 10° 88° (E) 1,891 10.6 41.6°
Sets 08:51:23 0° 95° (E) 2,826 11.2 42.0°
